Flag for Macedonia, Republic of Weather past 2 weeks in Skopje, Macedonia, Republic of

Now
25 °F

Clear.


Feels Like: 25 °F
Forecast: 27 / 53 °F
Wind: 2 mph from Northeast

Location: Skopje-Petrovec

Current Time: Dec 23, 2014 at 5:36:27 AM

Latest Report: Dec 23, 2014 at 5:00 AM


Visibility: 10 mi

Pressure: 30.33 "Hg

Humidity: 93%

Dew point: 23 °F

Location of SkopjeLocation

Historic Weather in Skopje — Graph

°F

Skopje temperature yesterday

Maximum temperature yesterday: 48 °F (at 1:00 PM)
Minimum temperature yesterday: 25 °F (at 6:30 AM)
Average temperature yesterday: 35 °F

Past Weeks' High & Low Weather Summary

 TemperatureHumidityPressure
High50 °F (Dec 12, 2:00 PM)100% (Dec 10, 3:30 AM)30.51 "Hg (Dec 10, 3:30 AM)
Low25 °F (Dec 13, 6:00 AM)34% (Dec 22, 3:00 PM)29.80 "Hg (Dec 9, 3:30 AM)
Average37 °F87%30.17 "Hg
* Reported Dec 8 4:00 AM — Dec 23 4:00 AM, Skopje, Weather by CustomWeather, © 2014

Note: Actual official high and low records may vary slightly from our data, if they occured in-between our weather recording intervals... More about our weather records

Advertising

Skopje weather history for previous 24 hours

 ConditionsComfort  
Time TempWeatherWind HumidityBarometerVisibility
4:00 AM
Dec 23
25 °FClear.2 mph93%30.33 "Hg10 mi
2:30 AM27 °FClear.No wind86%30.33 "Hg10 mi
1:30 AM27 °FClear.No wind86%30.33 "Hg10 mi
12:30 AM27 °FClear.No wind86%30.33 "Hg10 mi
12:00 AM27 °FClear.1 mph86%30.33 "Hg10 mi
11:30 PM
Dec 22
28 °FClear.1 mph86%30.36 "Hg10 mi
11:00 PM27 °FClear.2 mph93%30.36 "Hg10 mi
10:30 PM30 °FClear.3 mph80%30.36 "Hg10 mi
10:00 PM28 °FClear.2 mph86%30.36 "Hg10 mi
9:30 PM28 °FClear.2 mph86%30.36 "Hg10 mi
9:00 PM30 °FClear.No wind80%30.36 "Hg10 mi
8:30 PM30 °FClear.No wind80%30.33 "Hg10 mi
8:00 PM30 °FClear.No wind80%30.33 "Hg10 mi
7:30 PM32 °FClear.2 mph80%30.33 "Hg10 mi
7:00 PM34 °FClear.1 mph75%30.33 "Hg10 mi
6:30 PM34 °FClear.2 mph75%30.36 "Hg10 mi
6:00 PM36 °FClear.2 mph70%30.33 "Hg10 mi
5:30 PM37 °FClear.2 mph65%30.33 "Hg10 mi
5:00 PM36 °FClear.1 mph70%30.33 "Hg10 mi
4:30 PM39 °FClear.3 mph56%30.33 "Hg10 mi
4:00 PM45 °FSunny.2 mph39%30.33 "Hg10 mi
3:30 PM48 °FSunny.1 mph37%30.36 "Hg10 mi
3:00 PM48 °FSunny.No wind34%30.36 "Hg10 mi
2:30 PM48 °FSunny.1 mph37%30.36 "Hg10 mi
2:00 PM48 °FSunny.2 mph37%30.36 "Hg10 mi
1:30 PM46 °FSunny.2 mph40%30.39 "Hg10 mi
1:00 PM48 °FSunny.1 mph37%30.39 "Hg10 mi
12:30 PM46 °FSunny.2 mph46%30.42 "Hg10 mi
12:00 PM45 °FSunny.1 mph49%30.42 "Hg10 mi
11:30 AM43 °FSunny.1 mph46%30.42 "Hg10 mi
11:00 AM41 °FSunny.No wind53%30.45 "Hg10 mi
10:30 AM39 °FSunny.1 mph61%30.48 "Hg10 mi
10:00 AM39 °FSunny.No wind65%30.48 "Hg10 mi
9:30 AM36 °FSunny.2 mph70%30.48 "Hg10 mi
9:00 AM36 °FSunny.No wind65%30.51 "Hg10 mi
8:30 AM30 °FSunny.2 mph80%30.48 "Hg10 mi
8:00 AM28 °FSunny.2 mph80%30.48 "Hg10 mi
7:30 AM27 °FSunny.No wind86%30.48 "Hg10 mi
7:00 AM25 °FSunny.No wind86%30.48 "Hg10 mi
6:30 AM25 °FClear.No wind86%30.48 "Hg10 mi
6:00 AM27 °FClear.No wind86%30.48 "Hg10 mi
5:30 AM27 °FClear.No wind86%30.48 "Hg10 mi
Weather by CustomWeather, © 2014

See weather overviewHow to use our weather pages